This is the latest recevied weather packets stored in our database for station/object SQ5LTL-2. If no packets are shown the sender has not sent any weather packets the latest 10 day(s).
| Time | Temp. | Humidity | Pressure | Rain* | Wind** | Luminosity | Snow |
|---|---|---|---|---|---|---|---|
| 1778084719 | 24.44° C | 40% | 1006.7 hPa | 0 mm | - | 25 W/m² | - |
| 1778084417 | 25° C | 39% | 1006.7 hPa | 0 mm | - | 39 W/m² | - |
| 1778084136 | 25° C | 39% | 1006.6 hPa | 0 mm | - | 51 W/m² | - |
| 1778083834 | 25° C | 40% | 1006.7 hPa | 0 mm | - | 60 W/m² | - |
| 1778083532 | 24.44° C | 41% | 1006.8 hPa | 0 mm | - | 78 W/m² | - |
| 1778083231 | 24.44° C | 41% | 1006.7 hPa | 0 mm | - | 68 W/m² | - |
| 1778082930 | 24.44° C | 41% | 1006.6 hPa | 0 mm | - | 56 W/m² | - |
| 1778082628 | 24.44° C | 41% | 1006.7 hPa | 0 mm | - | 79 W/m² | - |
| 1778082327 | 25° C | 40% | 1006.8 hPa | 0 mm | - | 76 W/m² | - |
| 1778082025 | 25° C | 40% | 1006.8 hPa | 0 mm | - | 100 W/m² | - |
| 1778081723 | 25° C | 40% | 1006.8 hPa | 0 mm | - | 85 W/m² | - |
| 1778081423 | 25.56° C | 40% | 1006.8 hPa | 0 mm | - | 122 W/m² | - |
| 1778081121 | 25.56° C | 41% | 1006.8 hPa | 0 mm | - | 121 W/m² | - |
| 1778080819 | 25.56° C | 40% | 1006.8 hPa | 0 mm | - | 137 W/m² | - |
| 1778080518 | 25.56° C | 40% | 1006.9 hPa | 0 mm | - | 161 W/m² | - |
| 1778080216 | 25.56° C | 39% | 1007 hPa | 0 mm | - | 158 W/m² | - |
| 1778079936 | 26.11° C | 39% | 1007 hPa | 0 mm | - | 162 W/m² | - |
| 1778079634 | 26.11° C | 39% | 1006.8 hPa | 0 mm | - | 220 W/m² | - |
| 1778079332 | 25.56° C | 39% | 1007 hPa | 0 mm | - | 219 W/m² | - |
| 1778079031 | 26.11° C | 39% | 1006.9 hPa | 0 mm | - | 234 W/m² | - |
| 1778078729 | 26.11° C | 38% | 1006.9 hPa | 0 mm | - | 262 W/m² | - |
| 1778078428 | 25° C | 40% | 1007 hPa | 0 mm | - | 299 W/m² | - |
| 1778078126 | 25° C | 41% | 1007 hPa | 0 mm | - | 165 W/m² | - |
| 1778077824 | 25.56° C | 39% | 1007 hPa | 0 mm | - | 74 W/m² | - |
| 1778077524 | 26.67° C | 37% | 1006.9 hPa | 0 mm | - | 243 W/m² | - |
* Rain latest hour (hover to see other rain measurements)
** Current wind speed in m/s (hover to see current wind gust speed)